This demonstration page uses our WeatherBlox Daily Observations layout. Learn more.

Left ArrowRight Arrow

38.20091, -84.87328

Hourly Observations for September 7, 2022

Temp ( °F °C ) Dew Point ( °F °C ) Humidity (%) Winds ( mph kmh ) Pressure ( in mb ) Visibility ( mi km ) Precip ( " mm )
12:53 am 00:53 Clear 69 20.6 67 19.4 93 93 N 3 6 30.05 1018 10 16 0.00 0.00
1:53 am 01:53 Partly Cloudy 69 20.6 66 18.9 90 90 Calm 30.04 1017 10 16 0.00 0.00
3:53 am 03:53 Clear 67 19.4 65 18.3 93 93 N 3 6 30.04 1017 10 16 0.00 0.00
4:53 am 04:53 Clear 65 18.3 64 17.8 97 97 NNW 5 7 30.04 1017 8 13 0.00 0.00
5:53 am 05:53 Clear 65 18.3 64 17.8 97 97 N 3 6 30.04 1017 10 16 0.00 0.00
6:53 am 06:53 Mostly Clear 65 18.3 63 17.2 93 93 N 7 11 30.06 1018 9 14 0.00 0.00
7:53 am 07:53 Sunny 66 18.9 63 17.2 90 90 N 7 11 30.08 1019 8 13 0.00 0.00
8:53 am 08:53 Sunny 68 20 63 17.2 84 84 N 7 11 30.09 1019 10 16 0.00 0.00
9:53 am 09:53 Sunny 72 22.2 64 17.8 76 76 VRB 3 6 30.09 1019 10 16 0.00 0.00
10:53 am 10:53 Sunny 75 23.9 62 16.7 64 64 NE 8 13 30.10 1019 10 16 0.00 0.00
11:53 am 11:53 Sunny 77 25 61 16.1 58 58 NE 6 9 30.09 1019 10 16 0.00 0.00
12:53 pm 12:53 Mostly Cloudy 77 25 61 16.1 58 58 N 7 11 30.07 1018 10 16 0.00 0.00
1:53 pm 13:53 Mostly Cloudy 81 27.2 61 16.1 51 51 VRB 7 11 30.05 1018 10 16 0.00 0.00
2:53 pm 14:53 Sunny 81 27.2 60 15.6 49 49 N 10 17 30.03 1017 10 16 0.00 0.00
3:53 pm 15:53 Mostly Sunny 82 27.8 59 15 46 46 N 8 13 30.01 1016 10 16 0.00 0.00
4:53 pm 16:53 Mostly Sunny 81 27.2 60 15.6 49 49 NNW 12 19 30.00 1016 10 16 0.00 0.00
5:53 pm 17:53 Mostly Sunny 81 27.2 59 15 47 47 N 8 13 29.99 1016 10 16 0.00 0.00
6:53 pm 18:53 Sunny 79 26.1 60 15.6 52 52 N 6 9 29.99 1016 10 16 0.00 0.00
7:53 pm 19:53 Sunny 74 23.3 61 16.1 64 64 N 3 6 29.99 1016 10 16 0.00 0.00
8:53 pm 20:53 Clear 70 21.1 61 16.1 73 73 NNW 5 7 29.99 1016 10 16 0.00 0.00
9:53 pm 21:53 Mostly Clear 69 20.6 61 16.1 75 75 N 3 6 30.00 1016 10 16 0.00 0.00
10:53 pm 22:53 Clear 65 18.3 61 16.1 87 87 Calm 30.01 1016 10 16 0.00 0.00
11:53 pm 23:53 Clear 63 17.2 60 15.6 90 90 Calm 30.00 1016 10 16 0.00 0.00

Powered by AerisWeather